ICEYE-X39

Last updated on Mon Sep 16 2024 00:02:04 GMT+0000 (Coordinated Universal Time)

1 60546U 24149CG 24258.92519561 .00010391 00000+0 10060-2 0 9992 2 60546 97.7422 333.9346 0006011 65.5978 294.5868 14.92912535 4336
UTC large
Height (km)
Speed (km/s)
/
Latitude / Longitude
Inclination (degrees)
Orbital Period (minutes)
Azimuth
Elevation
Range (km)
Doppler Factor

Next 0 passes for location: London (51.5072 / 0.1276)

Sorry there are no passes over London.